{"data":{"norad_id":58944,"intl_designator":"2024-027P","name":"STARLINK-31336","alt_names":[],"object_type":"PAYLOAD","status":"ACTIVE","operator":null,"country":"US","launch_date":"2024-02-10","launch_site_code":"AFWTR","launch_vehicle":null,"mission":null,"orbit_class":"UNKNOWN","rcs_meters":null,"size_class":null,"mass_kg":null,"dimensions":null,"purposes":["comms"],"wikipedia_slug":null,"has_3d_model":false,"image_url":null,"decayed_at":null,"tle_current":{"epoch":"2026-05-25T04:00:46.485216Z","epoch_age_seconds":57787,"freshness":"FRESH","line1":"1 58944U 24027P   26145.16720469  .00000811  00000+0  39517-4 0  9996","line2":"2 58944  53.1615 314.6541 0001072  83.3374 276.7749 15.30197247129020","mean_motion":15.30197247,"eccentricity":0.0001072,"inclination_deg":53.1615,"raan_deg":314.6541,"arg_perigee_deg":83.3374,"mean_anomaly_deg":276.7749,"bstar":3.9517e-5,"rev_number":12902,"period_min":94.105515012732,"perigee_km":474.48860917039,"apogee_km":475.95796961644,"semimajor_km":6853.3602893934,"source":"CELESTRAK","updated_at":"2026-05-25T13:38:18.791037Z"}}}